Home > Weather > Stockton > Past weeks

Flag for USA Weather for the Past 2 Weeks in Stockton, California, USA

Now
58 °F

Clear.


Feels Like: 55 °F
Forecast: 57 / 82 °F
Wind: 14 mph from West

Location: Stockton Metropolitan Airport

Current Time: Apr 29, 2016 at 10:59:07 PM

Latest Report: Apr 29, 2016 at 9:55 PM


Visibility: 10 mi

Pressure: 29.87 "Hg

Humidity: 67%

Dew Point: 47 °F

Location of StocktonLocation

Historic Weather in Stockton — Graph

°F

Stockton Temperature Yesterday

Maximum temperature yesterday: 79 °F (at 2:55 PM)
Minimum temperature yesterday: 52 °F (at 1:55 AM)
Average temperature yesterday: 63 °F

High & Low Weather Summary for the Past Weeks

 TemperatureHumidityPressure
High89 °F (Apr 18, 3:55 PM)93% (Apr 17, 3:55 AM)30.19 "Hg (Apr 17, 3:55 AM)
Low43 °F (Apr 16, 5:55 AM)15% (Apr 19, 3:55 PM)29.81 "Hg (Apr 27, 5:55 PM)
Average63 °F58%29.97 "Hg
* Reported Apr 14 8:55 PM — Apr 29 8:55 PM, Stockton, Weather by CustomWeather, © 2016

Note: Actual official high and low records may vary slightly from our data, if they occured in-between our weather recording intervals... More about our weather records

Advertising

Stockton Weather History for the Previous 24 Hours

Scroll right to see more
 ConditionsComfort  
Time TempWeatherWind HumidityBarometerVisibility
8:55 PM
Fri, Apr 29
59 °FClear.18 mph62%29.84 "Hg10 mi
7:55 PM61 °FSunny.18 mph58%29.84 "Hg10 mi
6:55 PM66 °FSunny.12 mph52%29.85 "Hg10 mi
5:55 PM70 °FSunny.21 mph44%29.87 "Hg10 mi
4:55 PM74 °FSunny.21 mph37%29.88 "Hg10 mi
3:55 PM77 °FSunny.17 mph37%29.90 "Hg10 mi
2:55 PM77 °FSunny.6 mph32%29.92 "Hg10 mi
1:55 PM75 °FSunny.10 mph36%29.94 "Hg10 mi
12:55 PM73 °FSunny.5 mph38%29.96 "Hg10 mi
11:55 AM71 °FSunny.10 mph39%29.99 "Hg10 mi
10:55 AM68 °FSunny.3 mph45%30.00 "Hg10 mi
9:55 AM64 °FSunny.No wind63%30.01 "Hg10 mi
8:55 AM59 °FSunny.No wind69%30.00 "Hg10 mi
7:55 AM54 °FSunny.No wind80%29.99 "Hg10 mi
6:55 AM50 °FClear.No wind89%29.98 "Hg10 mi
5:55 AM49 °FClear.5 mph90%29.97 "Hg10 mi
4:55 AM49 °FClear.5 mph90%29.95 "Hg10 mi
3:55 AM53 °FClear.8 mph80%29.95 "Hg10 mi
2:55 AM54 °FClear.7 mph74%29.93 "Hg10 mi
1:55 AM53 °FClear.3 mph77%29.92 "Hg10 mi
12:55 AM54 °FClear.3 mph74%29.92 "Hg10 mi
11:55 PM
Thu, Apr 28
55 °FClear.5 mph74%29.91 "Hg10 mi
10:55 PM59 °FClear.13 mph62%29.90 "Hg10 mi
Weather by CustomWeather, © 2016

See weather overviewHow to use our weather pages